Buffalo, NY

10:57 AM EDT on August 21, 2017 (GMT -0400)
Buffalo Niagara International

Weather History for KBUF - January, 2013

Change the Weather History Date:

Friday, January 4, 2013

  Actual Average Record
Temperature  
Mean Temperature 30 °F 26 °F  
Max Temperature 33 °F 32 °F 66 °F (1874)
Min Temperature 27 °F 20 °F -7 °F (1981)
Degree Days  
Heating Degree Days 35 39  
Month to date heating degree days 159 156  
Since 1 July heating degree days 2320 2571  
Cooling Degree Days 0 0  
Month to date cooling degree days 0 0  
Year to date cooling degree days 0 0  
Moisture  
Dew Point 23 °F    
Average Humidity 72    
Maximum Humidity 78    
Minimum Humidity 66    
Precipitation  
Precipitation 0.00 in 0.12 in 0.96 in (1886)
Month to date precipitation 0.04 0.47  
Year to date precipitation 0.04 0.47  
Snow  
Snow 0.00 in 0.90 in 12.40 in (1999)
Month to date snowfall 0.8 3.6  
Since 1 July snowfall 22.8 39.8  
Snow Depth 7.00 in    
Sea Level Pressure  
Sea Level Pressure 29.99 in    
Wind  
Wind Speed 25 mph (WSW)    
Max Wind Speed 41 mph    
Max Gust Speed 55 mph    
Visibility 9 miles    
Events Snow    
T = Trace of Precipitation, MM = Missing Value Source: NWS Daily Summary

Daily Weather History Graph

Daily Weather History Graph

Search for Another Location

Airport or City:

Trip Planner

Search our weather history database for the weather conditions in past years. The results will help you decide how hot, cold, wet, or windy it might be!

Date:

Astronomy

Jan. 04, 2013 Rise Set
Actual Time 7:46 AM EST 4:54 PM EST
Civil Twilight 7:14 AM EST 5:26 PM EST
Nautical Twilight 6:38 AM EST 6:01 PM EST
Astronomical Twilight 6:04 AM EST 6:36 PM EST
Moon No Moon Rise 11:16 AM EST (1/4)
Length of Visible Light 10h 12m
Length of Day
9h 08m
Waning Gibbous, 55% of the Moon is Illuminated
Jan 4
Waning Gibbous
Jan 4
Last Quarter
Jan 11
New
Jan 18
First Quarter
Jan 26
Full

Hourly Weather History & Observations

Time (EST) Temp. Windchill Dew Point Humidity Pressure Visibility Wind Dir Wind Speed Gust Speed Precip Events Conditions
12:39 AM 28.4 °F 17.0 °F 21.2 °F 74% 30.01 in 7.0 mi West 15.0 mph 25.3 mph N/A   Mostly Cloudy
12:54 AM 28.4 °F 15.1 °F 21.2 °F 74% 30.04 in 7.0 mi WSW 20.7 mph 28.8 mph N/A   Mostly Cloudy
1:54 AM 28.0 °F 13.9 °F 19.0 °F 69% 30.04 in 9.0 mi West 23.0 mph 31.1 mph N/A   Mostly Cloudy
2:50 AM 26.6 °F 14.3 °F 19.4 °F 74% 30.00 in 9.0 mi West 16.1 mph 23.0 mph N/A   Scattered Clouds
2:54 AM 27.0 °F 13.5 °F 19.0 °F 72% 30.04 in 8.0 mi West 19.6 mph - N/A   Scattered Clouds
3:54 AM 28.0 °F 16.1 °F 19.0 °F 69% 30.02 in 8.0 mi West 16.1 mph 24.2 mph N/A   Mostly Cloudy
4:51 AM 28.4 °F 15.8 °F 19.4 °F 69% 29.97 in 9.0 mi WSW 18.4 mph 26.5 mph N/A   Mostly Cloudy
4:54 AM 28.0 °F 15.3 °F 19.9 °F 72% 29.99 in 9.0 mi WSW 18.4 mph 26.5 mph N/A   Mostly Cloudy
5:54 AM 28.9 °F 17.3 °F 21.9 °F 75% 29.99 in 10.0 mi WSW 16.1 mph 24.2 mph N/A   Mostly Cloudy
6:54 AM 33.8 °F 20.5 °F 24.8 °F 70% 29.97 in 10.0 mi WSW 27.6 mph 39.1 mph N/A   Mostly Cloudy
7:54 AM 32.0 °F 17.6 °F 25.0 °F 75% 29.96 in 10.0 mi WSW 29.9 mph 42.6 mph N/A   Mostly Cloudy
8:54 AM 32.0 °F 18.6 °F 26.1 °F 79% 29.99 in 10.0 mi SW 25.3 mph 46.0 mph N/A   Overcast
9:54 AM 33.1 °F 19.1 °F 25.0 °F 72% 29.98 in 10.0 mi SW 29.9 mph 48.3 mph N/A   Overcast
10:54 AM 32.0 °F 18.1 °F 25.0 °F 75% 29.96 in 5.0 mi SW 27.6 mph 41.4 mph N/A Snow Blowing Snow
11:54 AM 30.9 °F 15.3 °F 24.1 °F 76% 29.94 in 5.0 mi SW 34.5 mph 49.5 mph N/A Snow Blowing Snow
12:54 PM 32.0 °F 16.7 °F 24.1 °F 73% 29.93 in 6.0 mi WSW 34.5 mph 44.9 mph N/A Snow Blowing Snow
1:54 PM 30.9 °F 16.7 °F 24.1 °F 76% 29.90 in 6.0 mi WSW 27.6 mph 48.3 mph N/A Snow Blowing Snow
2:54 PM 32.0 °F 17.4 °F 24.1 °F 73% 29.90 in 10.0 mi WSW 31.1 mph 44.9 mph N/A   Mostly Cloudy
3:54 PM 32.0 °F 17.6 °F 23.0 °F 69% 29.93 in 10.0 mi WSW 29.9 mph 42.6 mph N/A   Mostly Cloudy
4:54 PM 32.0 °F 17.6 °F 24.1 °F 73% 29.93 in 10.0 mi WSW 29.9 mph 46.0 mph N/A   Mostly Cloudy
5:54 PM 32.0 °F 18.6 °F 24.1 °F 73% 29.96 in 10.0 mi WSW 25.3 mph 39.1 mph N/A   Mostly Cloudy
6:54 PM 30.9 °F 16.4 °F 24.1 °F 76% 29.97 in 10.0 mi WSW 28.8 mph 38.0 mph N/A   Overcast
7:54 PM 32.0 °F 18.4 °F 24.1 °F 73% 30.01 in 10.0 mi WSW 26.5 mph 38.0 mph N/A   Overcast
8:54 PM 32.0 °F 18.1 °F 24.1 °F 73% 30.02 in 10.0 mi WSW 27.6 mph 35.7 mph N/A   Overcast
9:54 PM 30.9 °F 19.1 °F 24.1 °F 76% 30.04 in 10.0 mi West 18.4 mph 31.1 mph N/A   Overcast
10:54 PM 30.9 °F 17.5 °F 21.9 °F 69% 30.06 in 10.0 mi WSW 24.2 mph 35.7 mph N/A   Overcast
11:54 PM 30.9 °F 19.4 °F 23.0 °F 72% 30.08 in 10.0 mi West 17.3 mph 29.9 mph N/A   Overcast